Location: ?kun?ru
(16.3916°N, 80.8194°E)
Time: 15:39:52
(UTC+00:00)

Atlas Centaur 2 - Pass Details

Date: 19 May 2025
Orbit: 456 x 1257 km, 30.4° (Epoch: 17 June)

Event Time Altitude Azimuth Distance (km) Brightness Sun altitude
Rises 14:26:21 0° 301° (WNW) 3,453 7.1 -19.3°
Reaches altitude 10° 14:28:44 10° 305° (NW) 2,630 6.0 -19.8°
Maximum altitude 14:35:13 64° 26° (NNE) 1,179 2.9 -21.2°
Enters shadow 14:38:36 34° 94° (E) 1,767 3.4 -21.9°
